This is the latest recevied weather packets stored in our database for station/object JE0GNV-13. If no packets are shown the sender has not sent any weather packets the latest 10 day(s).
| Time | Temp. | Humidity | Pressure | Rain* | Wind** | Luminosity | Snow |
|---|---|---|---|---|---|---|---|
| 1777524601 | 13.33° C | 72% | 1015.6 hPa | 0 mm | - | - | - |
| 1777524001 | 13.89° C | 71% | 1015.6 hPa | 0 mm | - | - | - |
| 1777523400 | 13.89° C | 69% | 1015.8 hPa | 0 mm | - | - | - |
| 1777522801 | 13.89° C | 68% | 1015.8 hPa | 0 mm | - | - | - |
| 1777522201 | 13.89° C | 66% | 1015.8 hPa | 0 mm | - | - | - |
| 1777521601 | 14.44° C | 67% | 1016.1 hPa | 0 mm | - | - | - |
| 1777521000 | 13.89° C | 69% | 1016.1 hPa | 0 mm | - | - | - |
| 1777520400 | 13.89° C | 68% | 1016.1 hPa | 0 mm | - | - | - |
| 1777519800 | 13.89° C | 68% | 1016.1 hPa | 0 mm | - | - | - |
| 1777519201 | 13.89° C | 66% | 1016.3 hPa | 0 mm | - | - | - |
| 1777518601 | 13.89° C | 64% | 1016.3 hPa | 0 mm | - | - | - |
| 1777518000 | 13.89° C | 67% | 1016.6 hPa | 0 mm | - | - | - |
| 1777517402 | 13.33° C | 64% | 1016.6 hPa | 0 mm | - | - | - |
| 1777516801 | 13.33° C | 64% | 1016.6 hPa | 0 mm | - | - | - |
| 1777516200 | 13.33° C | 64% | 1016.7 hPa | 0 mm | - | - | - |
| 1777515600 | 13.33° C | 65% | 1016.9 hPa | 0 mm | - | - | - |
| 1777515001 | 13.33° C | 68% | 1017 hPa | 0 mm | - | - | - |
| 1777514401 | 13.33° C | 69% | 1017.1 hPa | 0 mm | - | - | - |
| 1777513802 | 12.78° C | 67% | 1017.1 hPa | 0 mm | - | - | - |
| 1777513201 | 12.78° C | 68% | 1017.1 hPa | 0 mm | - | - | - |
| 1777512602 | 12.22° C | 68% | 1017.2 hPa | 0 mm | - | - | - |
| 1777512000 | 12.22° C | 72% | 1017.3 hPa | 0 mm | - | - | - |
| 1777511400 | 11.67° C | 70% | 1017.3 hPa | 0 mm | - | - | - |
| 1777510801 | 11.67° C | 69% | 1017.1 hPa | 0 mm | - | - | - |
| 1777510201 | 11.67° C | 71% | 1017 hPa | 0 mm | - | - | - |
* Rain latest hour (hover to see other rain measurements)
** Current wind speed in m/s (hover to see current wind gust speed)